This demonstration page uses our WeatherBlox Daily Observations layout. Learn more.

Left ArrowRight Arrow

Hourly Observations for August 14, 2015

Temp ( °F °C ) Dew Point ( °F °C ) Humidity (%) Winds ( mph kmh ) Pressure ( in mb ) Visibility ( mi km ) Precip ( " mm )
12:51 am 00:51 Clear 88 31.1 50 10 27 27 SE 9 15 29.83 1010 10 16 0.00 0.00
1:51 am 01:51 Clear 84 28.9 55 12.8 37 37 Calm 29.83 1010 10 16 0.00 0.00
2:51 am 02:51 Clear 80 26.7 58 14.4 47 47 NNW 5 7 29.85 1011 10 16 0.00 0.00
3:51 am 03:51 Clear 79 26.1 57 13.9 47 47 NNW 5 7 29.85 1011 10 16 0.00 0.00
4:51 am 04:51 Clear 78 25.6 57 13.9 48 48 Calm 29.86 1011 10 16 0.00 0.00
5:51 am 05:51 Sunny 77 25 56 13.3 48 48 Calm 29.89 1012 10 16 0.00 0.00
6:51 am 06:51 Sunny 81 27.2 53 11.7 38 38 ESE 10 17 29.91 1013 10 16 0.00 0.00
7:51 am 07:51 Sunny 89 31.7 50 10 26 26 E 8 13 29.92 1013 10 16 0.00 0.00
8:51 am 08:51 Sunny 94 34.4 49 9.4 21 21 E 14 22 29.92 1013 10 16 0.00 0.00
9:51 am 09:51 Sunny 96 35.6 49 9.4 20 20 SE 3 6 29.91 1013 10 16 0.00 0.00
10:51 am 10:51 Sunny 94 34.4 50 10 22 22 S 7 11 29.92 1013 10 16 0.00 0.00
11:51 am 11:51 Partly Cloudy 92 33.3 67 19.4 44 44 NNE 8 13 30.02 1017 10 16 0.00 0.00
12:51 pm 12:51 Sunny 97 36.1 49 9.4 20 20 NW 5 7 29.87 1011 10 16 0.00 0.00
1:51 pm 13:51 Sunny 102 38.9 49 9.4 17 17 N 6 9 29.84 1011 10 16 0.00 0.00
2:51 pm 14:51 Sunny 105 40.6 48 8.9 15 15 N 6 9 29.80 1009 10 16 0.00 0.00
3:51 pm 15:51 Mostly Sunny 105 40.6 47 8.3 14 14 WNW 8 13 29.78 1008 10 16 0.00 0.00
4:51 pm 16:51 Mostly Sunny 104 40 47 8.3 15 15 NNW 5 7 29.75 1008 10 16 0.00 0.00
5:51 pm 17:51 Mostly Sunny 78 25.6 58 14.4 50 50 NNW 9 15 30.11 1020 10 16 0.00 0.00
6:14 pm 18:14 Sunny with Nearby Thunderstorms 102 39 46 8 15 15 NW 10 17 29.62 1003 10 16 0.00 0.00
6:29 pm 18:29 Sunny 101 38.3 47 8.3 16 16 VRB 5 7 29.65 1004 10 16 0.00 0.00
6:51 pm 18:51 Sunny 98 36.7 48 8.9 18 18 SSW 15 24 29.77 1008 10 16 0.00 0.00
7:51 pm 19:51 Mostly Cloudy with Light Rain 97 36.1 48 8.9 19 19 VRB 6 9 29.77 1008 10 16 0.00 0.03
8:51 pm 20:51 Clear 93 33.9 50 10 23 23 N 16 26 29.81 1010 10 16 0.00 0.03
9:51 pm 21:51 undefined N/A N/A N/A undefined N/A N/A N/A 0.00 0.00
10:51 pm 22:51 Mostly Clear N/A N/A N/A undefined N/A N/A N/A 0.00 0.00
11:51 pm 23:51 Clear 84 28.9 57 13.9 40 40 NW 12 19 29.84 1011 10 16 0.00 0.00

Powered by AerisWeather